Regional Weather Roundup
Issued by NWS Cleveland, OH

Home | Current Version | Previous Version | Graphics & Text | Print | Product List | Glossary On
Versions: 1 2 3 4 5 6 7 8 9 10 11 12 13 14 15 16 17 18 19 20 21 22 23 24 25 26 27 28 29 30 31 32 33 34 35 36 37 38 39 40 41 42 43 44 45 46 47 48 49 50
803
ASUS41 KCLE 212102
RWRCLE
OHIO REGIONAL WEATHER ROUNDUP
NATIONAL WEATHER SERVICE CLEVELAND, OH
400 PM EST TUE NOV 21 2017

NOTE: "FAIR" INDICATES FEW OR NO CLOUDS BELOW 12,000 FEET WITH NO
SIGNIFICANT WEATHER AND/OR OBSTRUCTIONS TO VISIBILITY.

OHZ001>008-015>018-024>027-034-035-043-044-212200-
   NORTHWEST OHIO

CITY           SKY/WX    TMP DP  RH WIND       PRES   REMARKS
DEFIANCE       CLOUDY    47  34  60 SW8       29.86R
FINDLAY        CLOUDY    50  34  54 SW9       29.85R
TOLEDO EXPRESS CLOUDY    49  35  58 SW16      29.83R
TOLEDO EXEC    CLOUDY    49  34  56 SW15G23   29.84R
LIMA           CLOUDY    49  35  58 SW14      29.86R
$$

OHZ009>014-019>023-028>033-038-089-212200-
   NORTHEAST OHIO

CITY           SKY/WX    TMP DP  RH WIND       PRES   REMARKS
CLE-HOPKINS    CLOUDY    52  32  46 SW16      29.87R
CLE-LAKEFRONT  CLOUDY    52  32  46 SW18      29.84R
CUY CO. ARPT   MOCLDY    54  32  43 SW12      29.84R
LORAIN-ELYRIA  CLOUDY    50  30  46 SW13      29.86R
ASHTABULA      CLOUDY    51  28  41 SW12G22   29.84R
AKRON-CANTON   PTCLDY    51  28  41 SW17G25   29.87R
WOOSTER        NOT AVBL
MANSFIELD      CLOUDY    50  32  50 SW18G26   29.87R
YOUNGSTOWN     MOCLDY    53  26  35 SW14G23   29.85R
$$

OHZ042-051>053-060>062-070>072-077>081-212200-
  SOUTHWEST OHIO

CITY           SKY/WX    TMP DP  RH WIND       PRES   REMARKS
CINC-COVINGTON PTSUNNY   55  31  39 SW16G22   29.92R
CINC-LUNKEN    CLOUDY    56  32  40 S16       29.94R
HAMILTON       PTSUNNY   57  33  40 SW12      29.93R
DAYTON         CLOUDY    52  35  52 SW13      29.91R
WRIGHT-PAT AFB CLOUDY    54  29  39 SW17G23   29.91R
DAYTON GENERAL PTSUNNY   54  31  41 SW9       29.91R
WILMINGTON     CLOUDY    53  32  44 SW13      29.91R
$$

OHZ036-037-039>041-045>050-054>059-063>069-073>076-082>088-212200-
  CENTRAL AND SOUTHEAST OHIO

CITY           SKY/WX    TMP DP  RH WIND       PRES   REMARKS
COLUMBUS       MOSUNNY   55  29  36 SW18G26   29.91R
OSU AIRPORT    SUNNY     53  32  44 SW14G31   29.90R
BOLTON FIELD   SUNNY     54  30  40 SW17G23   29.91R
RICKENBACK AFB SUNNY     54  30  39 SW17G23   29.91R
NEWARK         CLOUDY    56  29  35 SW18G24   29.89S
MARION         MOSUNNY   51  32  48 SW12G20   29.89R
LANCASTER      SUNNY     54  32  43 SW13G21   29.91S
ZANESVILLE     CLOUDY    56  31  38 S12G18    29.91S
NEW PHILLY     NOT AVBL
$$




USA.gov is the U.S. government's official web portal to all federal, state and local government web resources and services.